Delavan, Wisconsin, United States (53115)
Lat: 42.63N, Lon: 88.64W
Wx Zone: WIZ070
Local Info
Past Weather Observations for Today

NOTE: This archive is for the closest National Weather Service station to Delavan. Information may differ from the station used for current weather conditions.

Click here for Long-term Archive

Time Weather Temperature Dewpoint Humidity Pressure Winds Precip Visibility
20:35
Clear
32°F / 0°C 32°F / 0°C 100% 30.27 in
(1025 mb)
Calm - 7SM
20:15
Clear
34°F / 1°C 34°F / 1°C 100% 30.27 in
(1025 mb)
Calm - 10SM
19:55
Clear
36°F / 2°C 34°F / 1°C 93% 30.27 in
(1025 mb)
Calm - 10SM
19:35
Clear
37°F / 3°C 36°F / 2°C 93% 30.27 in
(1025 mb)
Calm - 10SM
19:15
Clear
39°F / 4°C 37°F / 3°C 93% 30.27 in
(1025 mb)
Calm - 10SM
18:55
Clear
41°F / 5°C 37°F / 3°C 87% 30.27 in
(1025 mb)
Calm - 10SM
18:35
Clear
41°F / 5°C 37°F / 3°C 87% 30.27 in
(1025 mb)
Calm - 10SM
18:15
Clear
43°F / 6°C 37°F / 3°C 81% 30.27 in
(1025 mb)
Calm - 10SM
17:55
Clear
43°F / 6°C 37°F / 3°C 81% 30.27 in
(1025 mb)
ESE 5.8 mph
(ESE 9 kph)
- 10SM
17:35
Clear
45°F / 7°C 37°F / 3°C 76% 30.27 in
(1025 mb)
SE 5.8 mph
(SE 9 kph)
- 10SM
17:15
Clear
45°F / 7°C 39°F / 4°C 81% 30.27 in
(1025 mb)
ESE 9.2 mph
(ESE 15 kph)
- 10SM
16:55
Clear
46°F / 8°C 39°F / 4°C 76% 30.27 in
(1025 mb)
E 8.1 mph
(E 13 kph)
- 10SM
16:35
Clear
48°F / 9°C 39°F / 4°C 71% 30.27 in
(1025 mb)
ESE 8.1 mph
(ESE 13 kph)
- 10SM
16:15
Clear
52°F / 11°C 39°F / 4°C 62% 30.27 in
(1025 mb)
ESE 9.2 mph
(ESE 15 kph)
- 10SM
15:55
Clear
54°F / 12°C 39°F / 4°C 58% 30.27 in
(1025 mb)
SE 8.1 mph
(SE 13 kph)
- 10SM
15:35
Clear
55°F / 13°C 36°F / 2°C 47% 30.27 in
(1025 mb)
SE 6.9 mph
(SE 11 kph)
- 10SM
15:15
Clear
55°F / 13°C 36°F / 2°C 47% 30.27 in
(1025 mb)
ESE 4.6 mph
(ESE 7 kph)
- 10SM
14:55
Clear
55°F / 13°C 37°F / 3°C 51% 30.27 in
(1025 mb)
SSE 3.5 mph
(SSE 6 kph)
- 10SM
14:35
Clear
57°F / 14°C 37°F / 3°C 48% 30.3 in
(1026 mb)
SE 6.9 mph
(SE 11 kph)
- 10SM
14:15
Clear
55°F / 13°C 37°F / 3°C 51% 30.3 in
(1026 mb)
E 8.1 mph
(E 13 kph)
- 10SM
13:55
Clear
55°F / 13°C 37°F / 3°C 51% 30.3 in
(1026 mb)
SE 5.8 mph
(SE 9 kph)
- 10SM
13:35
Clear
55°F / 13°C 37°F / 3°C 51% 30.3 in
(1026 mb)
SSE 3.5 mph
(SSE 6 kph)
- 10SM
13:15
Clear
55°F / 13°C 37°F / 3°C 51% 30.3 in
(1026 mb)
SSE 4.6 mph
(SSE 7 kph)
- 10SM
12:55
Clear
55°F / 13°C 37°F / 3°C 51% 30.3 in
(1026 mb)
ESE 4.6 mph
(ESE 7 kph)
- 10SM
12:35
Clear
55°F / 13°C 37°F / 3°C 51% 30.33 in
(1027 mb)
Calm - 10SM
12:15
Clear
54°F / 12°C 39°F / 4°C 58% 30.33 in
(1027 mb)
SE 3.5 mph
(SE 6 kph)
- 10SM
11:55
Clear
54°F / 12°C 37°F / 3°C 54% 30.33 in
(1027 mb)
SE 6.9 mph
(SE 11 kph)
- 10SM
11:35
Partly Cloudy
52°F / 11°C 37°F / 3°C 58% 30.33 in
(1027 mb)
E 3.5 mph
(E 6 kph)
- 10SM
11:15
Mostly Cloudy
54°F / 12°C 39°F / 4°C 58% 30.36 in
(1028 mb)
SE 6.9 mph
(SE 11 kph)
- 10SM
10:55
Partly Cloudy
52°F / 11°C 39°F / 4°C 62% 30.36 in
(1028 mb)
Calm - 10SM
10:35
Mostly Cloudy
50°F / 10°C 39°F / 4°C 67% 30.36 in
(1028 mb)
E 3.5 mph
(E 6 kph)
- 10SM
10:15
Overcast
50°F / 10°C 41°F / 5°C 71% 30.36 in
(1028 mb)
SE 8.1 mph
(SE 13 kph)
- 10SM
09:55
Mostly Cloudy
48°F / 9°C 41°F / 5°C 76% 30.36 in
(1028 mb)
SSE 3.5 mph
(SSE 6 kph)
- 10SM
09:35
Clear
48°F / 9°C 41°F / 5°C 76% 30.36 in
(1028 mb)
Calm - 10SM
09:15
Clear
45°F / 7°C 41°F / 5°C 87% 30.36 in
(1028 mb)
Calm - 10SM
08:55
Clear
43°F / 6°C 39°F / 4°C 87% 30.36 in
(1028 mb)
Calm - 10SM
08:35
Clear
41°F / 5°C 41°F / 5°C 100% 30.36 in
(1028 mb)
Calm - 10SM
08:15
Clear
37°F / 3°C 37°F / 3°C 100% 30.36 in
(1028 mb)
Calm - 10SM
07:55
Clear
36°F / 2°C 36°F / 2°C 100% 30.36 in
(1028 mb)
Calm - 7SM
07:35
Clear
Fog And Mist
32°F / 0°C 32°F / 0°C 100% 30.36 in
(1028 mb)
Calm - 5SM
07:15
Clear
Fog And Mist
30°F / -1°C 30°F / -1°C 100% 30.36 in
(1028 mb)
Calm - 5SM
06:55
Clear
Fog And Mist
27°F / -3°C 27°F / -3°C 100% 30.36 in
(1028 mb)
Calm - 5SM
06:35
Clear
Fog And Mist
25°F / -4°C 25°F / -4°C 100% 30.33 in
(1027 mb)
Calm - 5SM
06:15
Clear
Fog And Mist
25°F / -4°C 25°F / -4°C 100% 30.33 in
(1027 mb)
Calm - 2 1/2SM
05:55
Clear
Fog And Mist
25°F / -4°C 25°F / -4°C 100% 30.33 in
(1027 mb)
Calm - 2 1/2SM
05:35
Obscured
Fog
27°F / -3°C 27°F / -3°C 100% 30.33 in
(1027 mb)
Calm - 1/2SM
05:15
Clear
Fog And Mist
25°F / -4°C 25°F / -4°C 100% 30.33 in
(1027 mb)
Calm - 2SM
04:55
Clear
Fog And Mist
25°F / -4°C 25°F / -4°C 100% 30.33 in
(1027 mb)
Calm - 2 1/2SM
04:35
Clear
Fog And Mist
25°F / -4°C 25°F / -4°C 100% 30.33 in
(1027 mb)
Calm - 2SM
04:15
Clear
Fog And Mist
27°F / -3°C 27°F / -3°C 100% 30.3 in
(1026 mb)
Calm - 3SM
03:55
Clear
Fog And Mist
27°F / -3°C 27°F / -3°C 100% 30.3 in
(1026 mb)
Calm - 5SM
03:35
Obscured
Fog And Mist
27°F / -3°C 27°F / -3°C 100% 30.3 in
(1026 mb)
Calm - 3/4SM
03:15
Obscured
Fog
28°F / -2°C 28°F / -2°C 100% 30.3 in
(1026 mb)
Calm - 1/2SM
02:55
Clear
Fog And Mist
28°F / -2°C 28°F / -2°C 100% 30.3 in
(1026 mb)
Calm - 3SM
02:35
Obscured
Fog And Mist
28°F / -2°C 28°F / -2°C 100% 30.3 in
(1026 mb)
Calm - 1SM
02:15
Obscured
Fog And Mist
28°F / -2°C 28°F / -2°C 100% 30.3 in
(1026 mb)
Calm - 1 1/2SM
01:55
Clear
Fog And Mist
28°F / -2°C 28°F / -2°C 100% 30.3 in
(1026 mb)
Calm - 5SM
01:35
Clear
Fog And Mist
28°F / -2°C 28°F / -2°C 100% 30.3 in
(1026 mb)
Calm - 5SM
01:15
Clear
Fog And Mist
28°F / -2°C 28°F / -2°C 100% 30.3 in
(1026 mb)
Calm - 5SM
00:55
Clear
27°F / -3°C 27°F / -3°C 100% 30.3 in
(1026 mb)
Calm - 7SM
00:35
Clear
28°F / -2°C 28°F / -2°C 100% 30.27 in
(1025 mb)
Calm - 7SM
00:15
Clear
28°F / -2°C 27°F / -3°C 93% 30.27 in
(1025 mb)
Calm - 10SM
Time Weather Temperature Dewpoint Humidity Pressure Winds Precip Visibility


Weather for websites

WeatherForYou.com, LLC is not responsible for any damages or problems caused by this service. Current weather conditions are obtained from the closest station including government and personal stations which may have varying degrees of accuracy. Weather forecasts are derived from the NOAA NDFD. Like all things, this site belongs to Jesus Christ... He just trusts me to maintain it. If you have any questions or comments email webmaster@weatherforyou.com

Copyright © 2014, WeatherForYou.com LLC. All rights reserved.